Regional Weather Roundup
Issued by NWS

Home | Current Version | Previous Version | Text Only | Print | Product List | Glossary On
Versions: 1 2 3 4 5 6 7 8 9 10 11 12 13 14 15 16 17 18 19 20 21 22 23 24 25 26 27 28 29 30 31 32 33 34 35 36 37 38 39 40 41 42 43 44 45 46 47 48 49 50
414
ASUS43 KDTX 261510
RWRMI
MICHIGAN HOURLY REGIONAL WEATHER ROUNDUP
NATIONAL WEATHER SERVICE DETROIT/PONTIAC MI
ISSUED BY NATIONAL WEATHER SERVICE GRAND RAPIDS MI
1000 AM EST SUN FEB 26 2017

NOTE: "FAIR" INDICATES FEW OR NO CLOUDS BELOW 12,000 FEET WITH NO
SIGNIFICANT WEATHER AND/OR OBSTRUCTION TO VISIBILITY.

MIZ047>049-052>055-059>063-066>070-074>076-081>083-261600-
SOUTHEAST LOWER MICHIGAN

CITY           SKY/WX    TMP DP  RH WIND       PRES   REMARKS
ADRIAN         MOSUNNY   28  19  69 SW13      30.11S WCI  17
ALMA           MOSUNNY   29  20  67 SW13      30.01F WCI  19
ANN ARBOR      SUNNY     29  19  66 S13       30.08R WCI  19
BAD AXE        SUNNY     28  18  66 SW12      30.01S WCI  18
DETROIT CITY   SUNNY     29  19  66 SW13      30.10R WCI  19
DETROIT        PTSUNNY   31  19  61 SW15      30.11S WCI  20
FLINT          SUNNY     28  18  66 SW10      30.05S WCI  19
GROSSE ILE     SUNNY     31  19  61 SW12      30.11R WCI  21
HILLSDALE      SUNNY     28  19  69 S10G16    30.06S WCI  19
HOWELL         MOSUNNY   29  19  65 SW8       30.04F WCI  21

CITY           SKY/WX    TMP DP  RH WIND       PRES   REMARKS
JACKSON        PTSUNNY   29  18  63 S10       30.05F WCI  20
LANSING        CLOUDY    29  18  63 S13       30.04F WCI  19
MASON          CLOUDY    28  20  71 S6        30.04F WCI  22
MONROE         MOSUNNY   31  20  64 SW15      30.12R WCI  20
MT. CLEMENS    MOSUNNY   31  19  60 SW14      30.07R WCI  21
PONTIAC        PTSUNNY   28  17  63 SW13      30.05R WCI  17
PORT HOPE        N/A     28  18  66 SW8       29.98F WCI  20
PORT HURON     SUNNY     28  18  64 SW7       30.07R WCI  21
TRI CITIES     PTSUNNY   29  19  66 SW18      30.01S WCI  16
YPSILANTI      SUNNY     31  20  63 SW14      30.10R WCI  21
$$
MIZ043>046-050>051-056>058-064>065-071>073-077>080-261600-
SOUTHWEST LOWER MICHIGAN

CITY           SKY/WX    TMP DP  RH WIND       PRES   REMARKS
BATTLE CREEK   SUNNY     27  19  72 S17       30.04F WCI  14
BENTON HARBOR  CLOUDY    30  17  58 S15G23    30.03F WCI  19
BIG RAPIDS     MOSUNNY   29  20  70 SW9       29.94F WCI  20
COLDWATER      SUNNY     29  19  65 S10       30.06F WCI  19
HOLLAND        SUNNY     29  19  66 S16       30.00F WCI  17
GRAND RAPIDS   PTSUNNY   28  18  66 S13       30.01S WCI  17
KALAMAZOO      SUNNY     27  16  63 S15       30.04F WCI  15
MARSHALL       MOSUNNY   28  18  65 S8        30.05F WCI  20
MOUNT PLEASANT MOSUNNY   30  20  64 SW14G24   29.98S WCI  20
MUSKEGON       PTSUNNY   33  23  66 S14       29.98F WCI  23
STURGIS        SUNNY     28  18  68 S13       30.06S WCI  17
$$
MIZ016>042-261600-
NORTHERN LOWER MICHIGAN

CITY           SKY/WX    TMP DP  RH WIND       PRES   REMARKS
ALPENA         CLOUDY    27  18  69 SW12G18   29.92F WCI  17
BEAVER ISLAND  LGT SNOW  29  26  86 SW16G22   29.81S WCI  17
BELLAIRE       CLOUDY    28  20  72 S10G17    29.89F WCI  19
CADILLAC       CLOUDY    26  19  75 SW13      29.87F WCI  14
CHARLEVOIX     LGT SNOW  28  24  84 S14       29.88F WCI  17
GAYLORD        MOSUNNY   25  17  72 SW14      29.85F WCI  13
HOUGHTON LAKE  SUNNY     25  17  72 SW10      29.92S WCI  15
MANISTEE       LGT SNOW  28  24  85 S7        29.91F FOG     WCI  21
OSCODA         CLOUDY    28  19  67 SW13G18   29.96S WCI  18
PELLSTON       LGT SNOW  27  20  75 S14G22    29.85F WCI  16
TRAVERSE CITY  CLOUDY    29  20  69 S10G18    29.88F WCI  20
LUDINGTON      LGT SNOW  30  25  82 S12G25    29.91F WCI  20
$$
MIZ007>008-015-261600-
EASTERN UPPER MICHIGAN

CITY           SKY/WX    TMP DP  RH WIND       PRES   REMARKS
KINROSS        LGT SNOW  27  24  89 VRB7      29.80F FOG     WCI  19
MACKINAC ISLAN LGT SNOW  25  23  93 S10G21    29.82F WCI  15
NEWBERRY       LGT SNOW  25  24  94 SW16      29.75F WCI  12
S. S. MARIE    MIX PCPN  24  17  74 E3        29.80S
$$
MIZ004>006-011>014-085-261600-
CENTRAL UPPER MICHIGAN

CITY           SKY/WX    TMP DP  RH WIND       PRES   REMARKS
MANISTIQUE     LGT SNOW  27  26  97 SW18G30   29.77F VSB 1   WCI  14
ESCANABA       LGT SNOW  26  22  84 SW14      29.77F FOG     WCI  14
MENOMINEE        N/A     26  20  77 SW16      29.80F WCI  14
$$
MIZ001>003-009>011-084-261600-
WESTERN UPPER MICHIGAN

CITY           SKY/WX    TMP DP  RH WIND       PRES   REMARKS
IRON MOUNTAIN  CLOUDY    20  14  77 S9        29.70F WCI   9
HOUGHTON       CLOUDY    24  17  74 SW10G20   29.62F WCI  14
COPPER HARBOR    N/A     25  21  85 VRB5      29.64S WCI  19
IRONWOOD       CLOUDY    23  18  81 SW10      29.66S WCI  12
$$

ABBREVIATIONS USED IN REMARKS
   TC - TEMPERATURE IN CELSIUS
  WCI - WIND CHILL INDEX
   HX - HEAT INDEX
  VSB - VISIBILITY





USA.gov is the U.S. government's official web portal to all federal, state and local government web resources and services.